Weather History for Canton, GA

Change the Weather History Date:

Monday, November 19, 2012

  Actual Average (KGVL) Record (KGVL)
Temperature  
Mean Temperature 48 °F 52 °F  
Max Temperature 64 °F 61 °F 81 °F (1942)
Min Temperature 33 °F 43 °F 20 °F (1951)
Degree Days  
Heating Degree Days 16 14  
Month to date heating degree days 206  
Since 1 July heating degree days 364  
Moisture  
Dew Point 34 °F    
Average Humidity 57    
Maximum Humidity 87    
Minimum Humidity 31    
Precipitation  
Precipitation 0.00 in 0.15 in 1.30 in (1931)
Month to date precipitation 2.40  
Snow  
Snow - - - ()
Month to date snowfall  
Since 1 July snowfall  
Since 1 September snowfall  
Snow Depth -    
Sea Level Pressure  
Sea Level Pressure 30.27 in    
Wind  
Wind Speed 1 mph ()    
Max Wind Speed 5 mph    
Max Gust Speed -    
Visibility 9.4 miles    
Events      
T = Trace of Precipitation, MM = Missing Value Source: Averaged Metar Reports

Daily Weather History Graph

Daily Weather History Graph

Search for Another Location

Airport:

Trip Planner

Search our weather history database for the weather conditions in past years. The results will help you decide how hot, cold, wet, or windy it might be!

Date:

Astronomy

Nov. 19, 2012 Rise Set
Actual Time 7:15 AM EST 5:31 PM EST
Civil Twilight 6:48 AM EST 5:57 PM EST
Nautical Twilight 6:17 AM EST 6:28 PM EST
Astronomical Twilight 5:47 AM EST 6:58 PM EST
Moon 12:23 PM EST (11/19) 11:50 PM EST (11/19)
Length of Visible Light 11h 09m
Length of Day
10h 15m
Waxing Crescent, 40% of the Moon is Illuminated
Nov 19
Waxing Crescent
Nov 20
First Quarter
Nov 28
Full
Dec 6
Last Quarter
Dec 13
New

Hourly Weather History & Observations

Time (EST) Temp. Windchill Dew Point Humidity Pressure Visibility Wind Dir Wind Speed Gust Speed Precip Events Conditions
12:15 AM 48.2 °F - 35.6 °F 62% 30.33 in 10.0 mi Calm Calm - N/A   Clear
12:55 AM 44.6 °F - 37.4 °F 76% 30.33 in 10.0 mi Calm Calm - N/A   Clear
1:15 AM 44.6 °F - 37.4 °F 76% 30.33 in 10.0 mi Calm Calm - N/A   Clear
1:55 AM 44.6 °F - 37.4 °F 76% 30.32 in 10.0 mi Calm Calm - N/A   Clear
2:15 AM 42.8 °F 41.1 °F 35.6 °F 76% 30.32 in 10.0 mi North 3.5 mph - N/A   Clear
2:35 AM 41.0 °F 38.0 °F 35.6 °F 81% 30.32 in 10.0 mi NNE 4.6 mph - N/A   Clear
2:55 AM 41.0 °F 38.0 °F 33.8 °F 76% 30.31 in 10.0 mi NNE 4.6 mph - N/A   Clear
3:15 AM 42.8 °F 41.1 °F 35.6 °F 76% 30.31 in 10.0 mi NNE 3.5 mph - N/A   Clear
3:35 AM 41.0 °F - 33.8 °F 76% 30.31 in 10.0 mi Calm Calm - N/A   Clear
3:55 AM 39.2 °F - 33.8 °F 81% 30.30 in 7.0 mi Calm Calm - N/A   Clear
4:15 AM 37.4 °F 34.9 °F 33.8 °F 87% 30.30 in 10.0 mi NNW 3.5 mph - N/A   Clear
4:35 AM 39.2 °F - 33.8 °F 81% 30.30 in 5.0 mi Calm Calm - N/A   Haze
4:55 AM 37.4 °F 34.9 °F 33.8 °F 87% 30.30 in 5.0 mi NW 3.5 mph - N/A   Haze
5:15 AM 41.0 °F 39.0 °F 35.6 °F 81% 30.31 in 7.0 mi NW 3.5 mph - N/A   Clear
5:35 AM 37.4 °F 34.9 °F 33.8 °F 87% 30.30 in 7.0 mi NW 3.5 mph - N/A   Clear
5:55 AM 37.4 °F - 33.8 °F 87% 30.30 in 7.0 mi Calm Calm - N/A   Clear
6:15 AM 37.4 °F - 33.8 °F 87% 30.30 in 10.0 mi Calm Calm - N/A   Clear
6:35 AM 35.6 °F - 32.0 °F 87% 30.30 in 7.0 mi Calm Calm - N/A   Clear
6:55 AM 37.4 °F 34.9 °F 32.0 °F 81% 30.29 in 10.0 mi East 3.5 mph - N/A   Clear
7:15 AM 37.4 °F - 32.0 °F 81% 30.29 in 10.0 mi Calm Calm - N/A   Clear
7:35 AM 33.8 °F 30.8 °F 30.2 °F 87% 30.30 in 4.0 mi NW 3.5 mph - N/A   Haze
7:55 AM 35.6 °F - 32.0 °F 87% 30.31 in 7.0 mi Calm Calm - N/A   Clear
8:15 AM 39.2 °F - 33.8 °F 81% 30.32 in 10.0 mi Calm Calm - N/A   Mostly Cloudy
8:35 AM 41.0 °F - 35.6 °F 81% 30.32 in 10.0 mi Calm Calm - N/A   Overcast
8:55 AM 42.8 °F - 35.6 °F 76% 30.32 in 10.0 mi Calm Calm - N/A   Overcast
9:15 AM 42.8 °F - 35.6 °F 76% 30.32 in 10.0 mi Calm Calm - N/A   Overcast
9:55 AM 46.4 °F - 37.4 °F 71% 30.33 in 10.0 mi Calm Calm - N/A   Overcast
10:15 AM 50.0 °F - 35.6 °F 58% 30.33 in 10.0 mi Calm Calm - N/A   Overcast
10:55 AM 51.8 °F - 37.4 °F 58% 30.32 in 10.0 mi Calm Calm - N/A   Overcast
11:15 AM 53.6 °F - 35.6 °F 51% 30.31 in 7.0 mi Calm Calm - N/A   Overcast
11:35 AM 53.6 °F - 37.4 °F 54% 30.31 in 10.0 mi Calm Calm - N/A   Overcast
11:55 AM 59.0 °F - 37.4 °F 45% 30.30 in 7.0 mi Calm Calm - N/A   Overcast
12:15 PM 59.0 °F - 37.4 °F 45% 30.29 in 10.0 mi Calm Calm - N/A   Overcast
12:35 PM 60.8 °F - 37.4 °F 42% 30.28 in 10.0 mi Calm Calm - N/A   Overcast
12:55 PM 60.8 °F - 37.4 °F 42% 30.27 in 10.0 mi Calm Calm - N/A   Overcast
1:15 PM 60.8 °F - 37.4 °F 42% 30.26 in 10.0 mi NW 3.5 mph - N/A   Overcast
1:35 PM 62.6 °F - 37.4 °F 39% 30.25 in 10.0 mi NE 3.5 mph - N/A   Overcast
1:55 PM 62.6 °F - 35.6 °F 37% 30.24 in 10.0 mi Calm Calm - N/A   Overcast
2:15 PM 62.6 °F - 35.6 °F 37% 30.23 in 10.0 mi ENE 4.6 mph - N/A   Overcast
2:35 PM 62.6 °F - 37.4 °F 39% 30.23 in 10.0 mi Calm Calm - N/A   Overcast
2:55 PM 62.6 °F - 35.6 °F 37% 30.22 in 10.0 mi Calm Calm - N/A   Overcast
3:15 PM 64.4 °F - 37.4 °F 37% 30.22 in 10.0 mi Calm Calm - N/A   Overcast
3:35 PM 62.6 °F - 37.4 °F 39% 30.22 in 10.0 mi SW 3.5 mph - N/A   Overcast
3:55 PM 64.4 °F - 35.6 °F 34% 30.21 in 10.0 mi Calm Calm - N/A   Overcast
4:15 PM 62.6 °F - 35.6 °F 37% 30.22 in 10.0 mi SW 4.6 mph - N/A   Overcast
4:35 PM 62.6 °F - 35.6 °F 37% 30.22 in 10.0 mi Calm Calm - N/A   Overcast
4:55 PM 62.6 °F - 33.8 °F 34% 30.22 in 10.0 mi Calm Calm - N/A   Overcast
5:15 PM 60.8 °F - 32.0 °F 34% 30.21 in 10.0 mi Calm Calm - N/A   Overcast
5:35 PM 60.8 °F - 32.0 °F 34% 30.21 in 10.0 mi Calm Calm - N/A   Overcast
5:55 PM 59.0 °F - 32.0 °F 36% 30.21 in 10.0 mi West 3.5 mph - N/A   Mostly Cloudy
6:15 PM 59.0 °F - 32.0 °F 36% 30.21 in 10.0 mi Calm Calm - N/A   Scattered Clouds
6:35 PM 59.0 °F - 30.2 °F 34% 30.21 in 10.0 mi Calm Calm - N/A   Mostly Cloudy
6:55 PM 57.2 °F - 32.0 °F 38% 30.21 in 10.0 mi Calm Calm - N/A   Mostly Cloudy
7:35 PM 59.0 °F - 28.4 °F 31% 30.21 in 10.0 mi Calm Calm - N/A   Overcast
7:55 PM 59.0 °F - 28.4 °F 31% 30.21 in 10.0 mi Calm Calm - N/A   Overcast
8:15 PM 55.4 °F - 33.8 °F 44% 30.21 in 10.0 mi Calm Calm - N/A   Overcast
8:35 PM 57.2 °F - 30.2 °F 36% 30.21 in 10.0 mi Calm Calm - N/A   Overcast
8:55 PM 55.4 °F - 32.0 °F 41% 30.21 in 10.0 mi Calm Calm - N/A   Overcast
9:15 PM 55.4 °F - 32.0 °F 41% 30.21 in 10.0 mi Calm Calm - N/A   Overcast
9:35 PM 53.6 °F - 33.8 °F 47% 30.21 in 10.0 mi Calm Calm - N/A   Scattered Clouds
9:55 PM 51.8 °F - 35.6 °F 54% 30.21 in 10.0 mi Calm Calm - N/A   Scattered Clouds
10:15 PM 53.6 °F - 32.0 °F 44% 30.22 in 10.0 mi Calm Calm - N/A   Overcast
10:35 PM 55.4 °F - 32.0 °F 41% 30.21 in 10.0 mi Calm Calm - N/A   Mostly Cloudy
10:55 PM 53.6 °F - 33.8 °F 47% 30.21 in 10.0 mi Calm Calm - N/A   Mostly Cloudy
11:15 PM 51.8 °F - 35.6 °F 54% 30.20 in 10.0 mi NNE 4.6 mph - N/A   Mostly Cloudy
11:55 PM 51.8 °F - 35.6 °F 54% 30.19 in 10.0 mi Calm Calm - N/A   Mostly Cloudy